Flag for U.S.A. Weather past 2 weeks in Bridgeport, Connecticut, U.S.A.

Now
74 °F

Sunny.


Feels Like: 75 °F
Forecast: 67 / 85 °F
Wind: 7 mph from Southwest

Location: Sikorsky Memorial Airport

Current Time: Jul 5, 2015 at 9:51:35 PM

Latest Report: Jul 5, 2015 at 8:52 PM


Visibility: 10 mi

Pressure: 30.11 "Hg

Humidity: 76%

Dew point: 66 °F

Location of BridgeportLocation

Historic Weather in Bridgeport — Graph

°F

Bridgeport temperature yesterday

Maximum temperature yesterday: 73 °F (at 4:52 PM)
Minimum temperature yesterday: 66 °F (at 11:52 PM)
Average temperature yesterday: 70 °F

Past Weeks' High & Low Weather Summary

 TemperatureHumidityPressure
High88 °F (Jun 21, 5:52 PM)100% (Jun 21, 2:52 AM)30.14 "Hg (Jun 21, 2:52 AM)
Low60 °F (Jun 27, 11:52 PM)36% (Jun 25, 12:52 PM)29.65 "Hg (Jun 28, 11:52 AM)
Average72 °F70%29.91 "Hg
* Reported Jun 20 8:52 PM — Jul 5 8:52 PM, Bridgeport, Weather by CustomWeather, © 2015

Note: Actual official high and low records may vary slightly from our data, if they occured in-between our weather recording intervals... More about our weather records

Advertising

Bridgeport weather history for previous 24 hours

 ConditionsComfort  
Time TempWeatherWind HumidityBarometerVisibility
8:52 PM
Sun, Jul 5
74 °FSunny.7 mph76%30.11 "Hg10 mi
7:52 PM76 °FSunny.13 mph72%30.10 "Hg10 mi
6:52 PM78 °FSunny.12 mph66%30.10 "Hg10 mi
5:52 PM82 °FSunny.8 mph53%30.09 "Hg10 mi
4:52 PM81 °FSunny.8 mph53%30.09 "Hg10 mi
3:52 PM80 °FSunny.8 mph54%30.09 "Hg10 mi
2:52 PM80 °FSunny.12 mph52%30.11 "Hg10 mi
1:52 PM80 °FSunny.12 mph56%30.11 "Hg10 mi
12:52 PM78 °FSunny.12 mph60%30.12 "Hg10 mi
11:52 AM75 °FSunny.14 mph66%30.11 "Hg10 mi
10:52 AM74 °FSunny.13 mph69%30.12 "Hg10 mi
9:52 AM73 °FSunny.9 mph69%30.12 "Hg10 mi
8:52 AM73 °FSunny.6 mph69%30.11 "Hg10 mi
7:52 AM70 °FSunny.8 mph71%30.09 "Hg10 mi
6:52 AM66 °FSunny.5 mph84%30.07 "Hg7 mi
5:52 AM63 °FFog.No wind87%30.06 "Hg5 mi
4:52 AM64 °FFog.No wind87%30.04 "Hg6 mi
3:52 AM64 °FFog.3 mph87%30.03 "Hg5 mi
2:52 AM64 °FFog.3 mph90%30.03 "Hg5 mi
1:52 AM65 °FPassing clouds.No wind85%30.04 "Hg4 mi
12:52 AM65 °FClear.No wind81%30.03 "Hg4 mi
11:52 PM
Sat, Jul 4
66 °FClear.No wind78%30.01 "Hg3 mi
10:52 PM67 °FClear.No wind79%30.01 "Hg4 mi
9:52 PM69 °FClear.No wind73%29.99 "Hg10 mi
Weather by CustomWeather, © 2015

See weather overviewHow to use our weather pages